contact:dominique.lefevre@mio.osupytheas.fr, maurice.libes@osupytheas.fr, didier.mallarino@osupytheas.fr
Project:EMSO http://www.emso-fr.org/EMSO-France
Depth: 2436.0 m
Title:EMSO Ligure Ouest : Data MII capteur AQUADOPP
Date,Latitude,Longitude,X_East,Y_North,Z_Up,Amplitude_X,Amplitude_Y,Amplitude_Z,Batterie,SoundSpeed,Heading,Pitch,Roll,Pressure,TIS,Speed,Direction
, degrees North, degrees East, m.s-1, m.s-1,m.s-1, 1, 1, 1, Volt, m.s-1, degree, degree, degree, dbar, degree_C, m.s-1, degree
2020-02-29T00:04:03,42.805,6.029,-0.042,-0.003,-0.039,104.0,108.0,102.0,13.3,1505.3,324.0,-0.8,1.8,2470.299,13.31,0.042,265.9
2020-02-29T00:07:03,42.805,6.029,-0.017,0.007,-0.063,105.0,108.0,100.0,13.4,1505.3,325.3,-0.7,1.9,2470.297,13.32,0.018,292.4
2020-02-29T00:10:03,42.805,6.029,-0.005,-0.004,-0.063,104.0,108.0,102.0,13.4,1505.3,327.6,-0.7,1.8,2470.304,13.33,0.006,231.3
2020-02-29T00:13:03,42.805,6.029,-0.011,0.01,-0.009,103.0,108.0,101.0,13.3,1505.3,323.6,-0.7,1.8,2470.336,13.33,0.014,312.3
2020-02-29T00:16:03,42.805,6.029,0.017,-0.016,0.032,103.0,107.0,101.0,13.4,1505.3,328.2,-0.7,1.8,2470.316,13.33,0.023,133.3
2020-02-29T00:19:03,42.805,6.029,-0.014,0.0,-0.057,104.0,108.0,101.0,13.4,1505.3,325.1,-0.7,1.8,2470.295,13.33,0.014,270.0
2020-02-29T00:22:03,42.805,6.029,-0.026,0.021,-0.049,105.0,107.0,100.0,13.4,1505.3,328.4,-0.7,1.8,2470.259,13.33,0.033,308.9
2020-02-29T00:25:03,42.805,6.029,-0.035,-0.001,-0.044,102.0,109.0,101.0,13.4,1505.3,325.1,-0.7,1.8,2470.275,13.33,0.035,268.4
2020-02-29T00:28:03,42.805,6.029,-0.006,0.001,0.0,104.0,108.0,101.0,13.4,1505.3,325.6,-0.7,1.8,2470.284,13.33,0.006,279.5
2020-02-29T00:31:03,42.805,6.029,0.013,-0.015,-0.016,104.0,108.0,100.0,13.4,1505.3,324.6,-0.7,1.8,2470.28,13.33,0.019,139.1
2020-02-29T00:34:03,42.805,6.029,-0.043,0.005,-0.03,103.0,107.0,103.0,13.4,1505.3,323.1,-0.7,1.8,2470.317,13.33,0.043,276.6
2020-02-29T00:37:03,42.805,6.029,-0.018,0.002,-0.024,103.0,109.0,101.0,13.4,1505.3,325.1,-0.7,1.8,2470.299,13.33,0.018,276.3
2020-02-29T00:40:03,42.805,6.029,-0.018,0.018,-0.012,103.0,108.0,101.0,13.4,1505.3,323.2,-0.7,1.8,2470.223,13.33,0.025,315.0
2020-02-29T00:43:03,42.805,6.029,0.009,0.007,0.013,105.0,107.0,101.0,13.3,1505.3,326.8,-0.7,1.8,2470.273,13.33,0.011,52.1
2020-02-29T00:46:03,42.805,6.029,-0.011,0.003,-0.043,105.0,108.0,101.0,13.3,1505.3,328.1,-0.7,1.8,2470.261,13.33,0.011,285.3
2020-02-29T00:49:03,42.805,6.029,-0.019,0.011,-0.047,105.0,108.0,101.0,13.4,1505.3,324.4,-0.7,1.8,2470.269,13.33,0.021,300.1
2020-02-29T00:52:03,42.805,6.029,-0.001,-0.004,-0.01,104.0,108.0,101.0,13.3,1505.3,326.2,-0.7,1.8,2470.27,13.33,0.004,194.0
2020-02-29T00:55:03,42.805,6.029,-0.017,0.003,-0.074,104.0,108.0,102.0,13.3,1505.3,323.8,-0.7,1.8,2470.235,13.33,0.017,280.0
2020-02-29T00:58:03,42.805,6.029,-0.037,-0.003,-0.031,105.0,107.0,101.0,13.4,1505.3,323.7,-0.7,1.9,2470.256,13.33,0.037,265.4
2020-02-29T01:04:03,42.805,6.029,-0.005,0.007,-0.018,107.0,109.0,102.0,13.4,1505.3,325.8,-0.7,1.8,2470.303,13.31,0.008,324.5
2020-02-29T01:07:03,42.805,6.029,-0.018,-0.001,-0.069,104.0,107.0,102.0,13.3,1505.3,326.8,-0.7,1.8,2470.297,13.32,0.018,266.8
2020-02-29T01:10:03,42.805,6.029,0.0,0.0,-0.031,103.0,108.0,102.0,13.3,1505.3,327.9,-0.7,1.8,2470.331,13.32,0.0,0.0
2020-02-29T01:13:03,42.805,6.029,0.005,-0.011,-0.032,104.0,108.0,100.0,13.4,1505.3,324.2,-0.7,1.8,2470.287,13.33,0.012,155.6
2020-02-29T01:16:03,42.805,6.029,-0.005,-0.001,-0.044,102.0,108.0,102.0,13.3,1505.3,325.4,-0.7,1.8,2470.246,13.33,0.005,258.7
2020-02-29T01:19:03,42.805,6.029,-0.023,0.014,-0.032,103.0,108.0,102.0,13.4,1505.3,323.8,-0.7,1.8,2470.256,13.33,0.026,301.3
2020-02-29T01:22:03,42.805,6.029,0.001,0.014,0.02,104.0,108.0,101.0,13.4,1505.3,326.4,-0.7,1.8,2470.297,13.33,0.014,4.1
2020-02-29T01:25:03,42.805,6.029,-0.017,-0.003,-0.065,103.0,107.0,101.0,13.4,1505.3,327.4,-0.7,1.8,2470.274,13.33,0.017,260.0
2020-02-29T01:28:03,42.805,6.029,-0.037,0.003,-0.052,103.0,106.0,102.0,13.4,1505.3,325.0,-0.7,1.8,2470.268,13.33,0.037,274.6
2020-02-29T01:31:03,42.805,6.029,0.001,0.0,-0.049,103.0,106.0,102.0,13.4,1505.3,326.6,-0.7,1.9,2470.246,13.33,0.001,90.0
2020-02-29T01:34:03,42.805,6.029,0.011,0.014,-0.025,104.0,106.0,102.0,13.3,1505.3,328.3,-0.7,1.8,2470.263,13.33,0.017,38.2
2020-02-29T01:37:03,42.805,6.029,-0.022,0.003,-0.041,104.0,107.0,101.0,13.4,1505.3,324.3,-0.7,1.8,2470.259,13.33,0.022,277.8
2020-02-29T01:40:03,42.805,6.029,-0.015,0.008,-0.021,105.0,108.0,101.0,13.4,1505.3,326.5,-0.7,1.8,2470.205,13.33,0.017,298.1
2020-02-29T01:43:03,42.805,6.029,-0.035,0.009,-0.042,103.0,108.0,101.0,13.4,1505.3,324.8,-0.7,1.9,2470.231,13.33,0.036,284.4
2020-02-29T01:46:03,42.805,6.029,-0.019,0.013,-0.04,104.0,109.0,101.0,13.4,1505.3,324.3,-0.7,1.9,2470.242,13.33,0.023,304.4
2020-02-29T01:49:03,42.805,6.029,0.011,0.004,-0.026,104.0,107.0,101.0,13.3,1505.3,327.4,-0.7,1.8,2470.219,13.33,0.011,70.0
2020-02-29T01:52:03,42.805,6.029,-0.003,0.002,-0.001,103.0,107.0,101.0,13.4,1505.3,327.6,-0.7,1.8,2470.259,13.33,0.003,303.7
2020-02-29T01:55:03,42.805,6.029,-0.003,0.007,-0.031,104.0,108.0,102.0,13.4,1505.3,323.9,-0.7,1.8,2470.246,13.33,0.007,336.8
2020-02-29T01:58:03,42.805,6.029,-0.002,0.0,-0.052,104.0,107.0,101.0,13.4,1505.3,324.7,-0.7,1.8,2470.266,13.33,0.002,270.0
2020-02-29T02:04:03,42.805,6.029,-0.036,0.009,-0.026,104.0,105.0,101.0,13.4,1505.3,326.5,-0.8,1.8,2470.273,13.31,0.037,284.0
2020-02-29T02:07:03,42.805,6.029,-0.011,0.004,-0.024,103.0,107.0,101.0,13.3,1505.3,324.9,-0.7,1.9,2470.253,13.32,0.011,290.0
2020-02-29T02:10:03,42.805,6.029,-0.033,-0.001,-0.031,103.0,105.0,100.0,13.3,1505.3,326.0,-0.7,1.8,2470.271,13.32,0.033,268.3
2020-02-29T02:13:03,42.805,6.029,-0.009,0.016,-0.036,104.0,106.0,101.0,13.4,1505.3,324.1,-0.7,1.8,2470.254,13.32,0.018,330.6
2020-02-29T02:16:03,42.805,6.029,-0.002,0.002,-0.029,103.0,107.0,102.0,13.3,1505.3,324.0,-0.7,1.8,2470.251,13.33,0.002,315.0
2020-02-29T02:19:03,42.805,6.029,-0.021,0.016,-0.023,104.0,107.0,101.0,13.4,1505.3,324.7,-0.7,1.8,2470.238,13.33,0.026,307.3
2020-02-29T02:22:03,42.805,6.029,-0.023,-0.003,-0.018,104.0,106.0,100.0,13.3,1505.3,323.8,-0.7,1.8,2470.213,13.33,0.023,262.6
2020-02-29T02:25:03,42.805,6.029,-0.031,0.011,0.007,103.0,108.0,100.0,13.4,1505.3,325.8,-0.6,1.9,2470.231,13.33,0.032,289.5
2020-02-29T02:28:03,42.805,6.029,-0.015,0.018,-0.024,104.0,107.0,101.0,13.4,1505.3,326.5,-0.7,1.8,2470.244,13.33,0.023,320.2
2020-02-29T02:31:03,42.805,6.029,-0.018,0.0,-0.018,104.0,108.0,101.0,13.4,1505.3,324.9,-0.7,1.8,2470.196,13.33,0.018,270.0
2020-02-29T02:34:03,42.805,6.029,-0.012,0.015,-0.014,105.0,107.0,101.0,13.4,1505.3,328.4,-0.7,1.9,2470.237,13.33,0.019,321.3
2020-02-29T02:37:03,42.805,6.029,-0.026,0.003,-0.035,105.0,106.0,101.0,13.4,1505.3,325.4,-0.7,1.8,2470.189,13.33,0.026,276.6
2020-02-29T02:40:03,42.805,6.029,-0.017,0.003,-0.014,104.0,106.0,101.0,13.3,1505.3,328.0,-0.7,1.8,2470.247,13.33,0.017,280.0
2020-02-29T02:43:03,42.805,6.029,-0.023,-0.002,-0.027,104.0,106.0,100.0,13.4,1505.3,326.8,-0.7,1.8,2470.247,13.33,0.023,265.0
2020-02-29T02:46:03,42.805,6.029,-0.013,0.009,-0.023,105.0,107.0,101.0,13.4,1505.3,327.1,-0.7,1.9,2470.211,13.33,0.015,304.7
2020-02-29T02:49:03,42.805,6.029,0.017,0.017,0.01,103.0,108.0,101.0,13.4,1505.3,325.2,-0.7,1.8,2470.269,13.33,0.024,45.0
2020-02-29T02:52:03,42.805,6.029,0.0,0.029,-0.017,104.0,107.0,101.0,13.3,1505.3,323.6,-0.7,1.8,2470.229,13.33,0.028,0.0
2020-02-29T02:55:03,42.805,6.029,0.015,0.014,-0.013,104.0,107.0,102.0,13.4,1505.3,324.8,-0.7,1.8,2470.198,13.33,0.02,47.0
2020-02-29T02:58:03,42.805,6.029,-0.03,0.009,-0.057,104.0,107.0,101.0,13.4,1505.3,322.8,-0.7,1.8,2470.205,13.33,0.031,286.7
2020-02-29T03:04:03,42.805,6.029,-0.024,0.013,-0.043,105.0,108.0,101.0,13.4,1505.3,326.1,-0.8,1.9,2470.248,13.31,0.027,298.4
2020-02-29T03:07:03,42.805,6.029,-0.036,0.011,-0.031,106.0,108.0,102.0,13.4,1505.3,326.2,-0.7,1.9,2470.24,13.32,0.037,287.0
2020-02-29T03:10:03,42.805,6.029,-0.021,0.012,-0.019,105.0,107.0,102.0,13.3,1505.3,325.9,-0.7,1.8,2470.242,13.32,0.024,299.7
2020-02-29T03:13:03,42.805,6.029,-0.014,0.012,-0.046,103.0,107.0,101.0,13.4,1505.3,326.3,-0.7,1.8,2470.258,13.33,0.018,310.6
2020-02-29T03:16:03,42.805,6.029,-0.041,0.014,-0.019,103.0,106.0,102.0,13.4,1505.3,326.1,-0.7,1.8,2470.265,13.33,0.043,288.9
2020-02-29T03:19:03,42.805,6.029,0.0,0.037,-0.027,102.0,108.0,102.0,13.4,1505.3,324.6,-0.7,1.8,2470.255,13.33,0.037,0.0
2020-02-29T03:22:03,42.805,6.029,-0.005,0.028,0.019,103.0,107.0,102.0,13.4,1505.3,326.9,-0.7,1.8,2470.229,13.33,0.028,349.9
2020-02-29T03:25:03,42.805,6.029,-0.039,0.021,-0.048,103.0,107.0,102.0,13.3,1505.3,324.6,-0.8,1.8,2470.26,13.33,0.044,298.3
2020-02-29T03:28:03,42.805,6.029,0.002,0.026,-0.032,105.0,106.0,101.0,13.3,1505.3,326.4,-0.7,1.8,2470.208,13.33,0.026,4.4
2020-02-29T03:31:03,42.805,6.029,0.016,0.024,-0.019,104.0,107.0,100.0,13.3,1505.3,326.7,-0.7,1.9,2470.215,13.33,0.028,33.7
2020-02-29T03:34:03,42.805,6.029,-0.004,0.006,-0.039,104.0,107.0,101.0,13.4,1505.3,327.5,-0.7,1.9,2470.213,13.33,0.007,326.3
2020-02-29T03:37:03,42.805,6.029,-0.001,0.01,-0.014,104.0,107.0,101.0,13.4,1505.3,323.9,-0.7,1.8,2470.22,13.33,0.01,354.3
2020-02-29T03:40:03,42.805,6.029,-0.03,0.006,-0.036,102.0,107.0,101.0,13.4,1505.3,323.8,-0.7,1.8,2470.225,13.33,0.03,281.3
2020-02-29T03:43:03,42.805,6.029,-0.021,0.016,-0.027,103.0,107.0,100.0,13.4,1505.3,327.4,-0.7,1.9,2470.192,13.33,0.026,307.3
2020-02-29T03:46:03,42.805,6.029,0.01,0.03,-0.01,104.0,108.0,101.0,13.3,1505.3,323.9,-0.7,1.8,2470.228,13.33,0.031,18.4
2020-02-29T03:49:03,42.805,6.029,-0.026,0.031,-0.011,104.0,106.0,101.0,13.3,1505.3,323.5,-0.7,1.8,2470.206,13.33,0.04,320.0
2020-02-29T03:52:03,42.805,6.029,-0.023,0.021,-0.025,104.0,109.0,101.0,13.4,1505.3,325.1,-0.7,1.8,2470.219,13.33,0.031,312.4
2020-02-29T03:55:03,42.805,6.029,-0.036,0.015,-0.012,104.0,107.0,102.0,13.4,1505.3,323.6,-0.7,1.8,2470.197,13.33,0.039,292.6
2020-02-29T03:58:03,42.805,6.029,-0.007,0.004,-0.065,106.0,108.0,100.0,13.3,1505.3,324.8,-0.7,1.8,2470.191,13.33,0.008,299.7
2020-02-29T04:04:03,42.805,6.029,0.003,0.021,0.001,103.0,108.0,101.0,13.3,1505.3,324.8,-0.7,1.8,2470.279,13.31,0.021,8.1
2020-02-29T04:07:03,42.805,6.029,-0.01,0.014,-0.034,102.0,108.0,103.0,13.4,1505.3,327.7,-0.7,1.9,2470.189,13.32,0.017,324.5
2020-02-29T04:10:03,42.805,6.029,-0.012,0.052,-0.025,104.0,105.0,102.0,13.3,1505.3,326.0,-0.7,1.8,2470.219,13.32,0.053,347.0
2020-02-29T04:13:03,42.805,6.029,-0.014,0.013,-0.037,104.0,106.0,100.0,13.4,1505.3,327.7,-0.7,1.8,2470.236,13.33,0.019,312.9
2020-02-29T04:16:03,42.805,6.029,-0.026,0.022,-0.031,104.0,108.0,101.0,13.4,1505.3,323.5,-0.7,1.8,2470.266,13.33,0.034,310.2
2020-02-29T04:19:03,42.805,6.029,-0.021,0.02,-0.057,105.0,108.0,101.0,13.4,1505.3,327.1,-0.7,1.8,2470.217,13.33,0.028,313.6
2020-02-29T04:22:03,42.805,6.029,-0.018,0.018,-0.034,103.0,107.0,101.0,13.4,1505.3,327.9,-0.7,1.8,2470.229,13.33,0.025,315.0
2020-02-29T04:25:03,42.805,6.029,-0.017,0.029,-0.019,104.0,108.0,101.0,13.4,1505.3,325.0,-0.7,1.8,2470.236,13.33,0.033,329.6
2020-02-29T04:28:03,42.805,6.029,-0.02,0.024,-0.035,104.0,108.0,99.0,13.4,1505.3,322.9,-0.7,1.8,2470.199,13.33,0.031,320.2
2020-02-29T04:31:03,42.805,6.029,0.003,0.006,-0.004,104.0,109.0,101.0,13.3,1505.3,323.2,-0.7,1.8,2470.226,13.33,0.006,26.6
2020-02-29T04:34:03,42.805,6.029,-0.01,0.033,-0.059,103.0,108.0,100.0,13.3,1505.3,323.7,-0.7,1.8,2470.221,13.33,0.034,343.1
2020-02-29T04:37:03,42.805,6.029,-0.025,0.008,-0.049,103.0,108.0,101.0,13.4,1505.3,327.2,-0.7,1.8,2470.195,13.33,0.026,287.7
2020-02-29T04:40:03,42.805,6.029,-0.019,0.019,-0.041,104.0,105.0,101.0,13.3,1505.3,324.6,-0.7,1.8,2470.233,13.33,0.026,315.0
2020-02-29T04:43:03,42.805,6.029,-0.018,0.015,-0.005,105.0,106.0,100.0,13.4,1505.3,325.8,-0.7,1.8,2470.16,13.33,0.023,309.8
2020-02-29T04:46:03,42.805,6.029,-0.045,-0.001,-0.048,102.0,108.0,101.0,13.4,1505.3,327.6,-0.7,1.8,2470.22,13.33,0.045,268.7
2020-02-29T04:49:03,42.805,6.029,-0.002,0.028,-0.033,102.0,107.0,101.0,13.4,1505.3,324.8,-0.7,1.8,2470.223,13.33,0.028,355.9
2020-02-29T04:52:03,42.805,6.029,-0.023,0.015,-0.051,103.0,106.0,101.0,13.4,1505.3,324.6,-0.7,1.8,2470.167,13.33,0.027,303.1
2020-02-29T04:55:03,42.805,6.029,0.022,0.035,0.007,101.0,108.0,102.0,13.4,1505.3,326.8,-0.7,1.8,2470.234,13.33,0.041,32.2
2020-02-29T04:58:03,42.805,6.029,-0.003,0.024,-0.035,103.0,108.0,100.0,13.3,1505.3,323.8,-0.7,1.9,2470.219,13.33,0.024,352.9
2020-02-29T05:04:03,42.805,6.029,-0.013,0.025,-0.012,103.0,106.0,100.0,13.3,1505.3,325.0,-0.7,1.8,2470.236,13.31,0.028,332.5
2020-02-29T05:07:03,42.805,6.029,0.021,0.027,0.022,104.0,107.0,100.0,13.3,1505.3,323.1,-0.7,1.8,2470.269,13.32,0.034,37.9
2020-02-29T05:10:03,42.805,6.029,-0.025,0.002,-0.037,104.0,108.0,101.0,13.4,1505.3,325.9,-0.7,1.8,2470.264,13.33,0.025,274.6
2020-02-29T05:13:03,42.805,6.029,0.0,0.015,-0.034,104.0,107.0,101.0,13.4,1505.3,326.9,-0.7,1.8,2470.218,13.33,0.015,0.0
2020-02-29T05:16:03,42.805,6.029,-0.02,0.014,-0.038,103.0,108.0,101.0,13.4,1505.3,323.3,-0.7,1.8,2470.208,13.33,0.024,305.0
2020-02-29T05:19:03,42.805,6.029,-0.012,0.006,-0.048,103.0,109.0,101.0,13.4,1505.3,326.3,-0.7,1.8,2470.199,13.33,0.013,296.6
2020-02-29T05:22:03,42.805,6.029,-0.014,0.015,-0.014,104.0,107.0,101.0,13.4,1505.3,323.5,-0.7,1.8,2470.187,13.33,0.02,317.0
2020-02-29T05:25:03,42.805,6.029,-0.001,0.002,0.001,103.0,108.0,102.0,13.4,1505.3,326.4,-0.7,1.8,2470.212,13.33,0.002,333.4
2020-02-29T05:28:03,42.805,6.029,-0.034,0.023,-0.024,103.0,107.0,101.0,13.3,1505.3,326.5,-0.7,1.8,2470.253,13.33,0.041,304.1
2020-02-29T05:34:03,42.805,6.029,-0.006,0.022,-0.044,105.0,107.0,101.0,13.4,1505.3,325.6,-0.8,1.8,2470.266,13.31,0.022,344.7
2020-02-29T05:37:03,42.805,6.029,-0.023,0.017,-0.032,103.0,109.0,101.0,13.4,1505.3,328.6,-0.7,1.8,2470.221,13.32,0.028,306.5
2020-02-29T05:40:03,42.805,6.029,-0.038,0.02,-0.078,104.0,109.0,101.0,13.4,1505.3,324.7,-0.7,1.9,2470.237,13.32,0.042,297.8
2020-02-29T05:43:03,42.805,6.029,0.013,0.011,0.0,106.0,107.0,100.0,13.4,1505.3,325.3,-0.7,1.9,2470.225,13.33,0.017,49.8
2020-02-29T05:46:03,42.805,6.029,-0.035,0.023,-0.042,104.0,106.0,100.0,13.3,1505.3,326.6,-0.7,1.8,2470.232,13.33,0.041,303.3
2020-02-29T05:49:03,42.805,6.029,-0.01,0.037,-0.025,103.0,107.0,100.0,13.4,1505.3,326.9,-0.7,1.8,2470.223,13.33,0.038,344.9
2020-02-29T05:52:03,42.805,6.029,-0.012,0.025,-0.012,104.0,107.0,101.0,13.3,1505.3,328.3,-0.7,1.8,2470.25,13.33,0.027,334.4
2020-02-29T05:55:03,42.805,6.029,-0.002,0.016,-0.013,104.0,107.0,102.0,13.3,1505.3,324.6,-0.7,1.8,2470.19,13.33,0.016,352.9
2020-02-29T05:58:03,42.805,6.029,-0.027,0.0,-0.034,105.0,109.0,102.0,13.4,1505.3,324.3,-0.7,1.8,2470.216,13.33,0.026,270.0
2020-02-29T06:04:03,42.805,6.029,-0.022,0.029,-0.023,105.0,107.0,100.0,13.4,1505.3,323.3,-0.8,1.8,2470.242,13.31,0.036,322.8
2020-02-29T06:07:03,42.805,6.029,-0.029,0.012,-0.029,105.0,109.0,101.0,13.3,1505.3,326.3,-0.7,1.8,2470.245,13.32,0.031,292.5
2020-02-29T06:10:03,42.805,6.029,-0.041,0.019,-0.03,105.0,109.0,102.0,13.4,1505.3,324.3,-0.7,1.8,2470.255,13.32,0.045,294.9
2020-02-29T06:13:03,42.805,6.029,-0.012,0.039,-0.011,104.0,109.0,101.0,13.4,1505.3,328.6,-0.7,1.8,2470.247,13.33,0.04,342.9
2020-02-29T06:16:03,42.805,6.029,-0.011,0.002,-0.065,104.0,109.0,101.0,13.3,1505.3,327.1,-0.7,1.8,2470.244,13.33,0.011,280.3
2020-02-29T06:19:03,42.805,6.029,-0.023,-0.012,-0.014,104.0,109.0,100.0,13.4,1505.3,323.6,-0.7,1.8,2470.241,13.33,0.025,242.4
2020-02-29T06:22:03,42.805,6.029,-0.035,0.044,-0.031,103.0,107.0,101.0,13.4,1505.3,324.2,-0.7,1.8,2470.264,13.33,0.056,321.5
2020-02-29T06:25:03,42.805,6.029,-0.034,0.038,-0.041,104.0,106.0,101.0,13.3,1505.3,323.2,-0.7,1.8,2470.219,13.33,0.05,318.2
2020-02-29T06:28:03,42.805,6.029,-0.015,0.012,-0.014,106.0,107.0,101.0,13.3,1505.3,327.8,-0.7,1.8,2470.244,13.33,0.019,308.7
2020-02-29T06:31:03,42.805,6.029,-0.041,0.015,-0.055,102.0,107.0,100.0,13.3,1505.3,325.9,-0.7,1.9,2470.23,13.33,0.043,290.1
2020-02-29T06:34:03,42.805,6.029,-0.021,0.022,-0.06,103.0,108.0,101.0,13.4,1505.3,328.6,-0.7,1.8,2470.217,13.33,0.03,316.3
2020-02-29T06:37:03,42.805,6.029,-0.013,0.034,-0.024,103.0,105.0,100.0,13.3,1505.3,325.6,-0.7,1.8,2470.226,13.33,0.036,339.1
2020-02-29T06:43:03,42.805,6.029,-0.022,0.012,-0.01,103.0,106.0,100.0,13.4,1505.3,327.9,-0.7,1.8,2470.277,13.31,0.025,298.6
2020-02-29T06:46:03,42.805,6.029,0.041,0.043,0.042,103.0,105.0,101.0,13.4,1505.3,323.6,-0.7,1.8,2470.247,13.32,0.059,43.6
2020-02-29T06:49:03,42.805,6.029,0.024,0.013,0.014,104.0,106.0,101.0,13.4,1505.3,326.9,-0.7,1.8,2470.235,13.32,0.027,61.6
2020-02-29T06:52:03,42.805,6.029,0.008,0.021,0.035,104.0,105.0,100.0,13.4,1505.3,327.7,-0.7,1.9,2470.259,13.33,0.022,20.9
2020-02-29T06:55:03,42.805,6.029,-0.011,0.022,-0.04,103.0,109.0,101.0,13.4,1505.3,324.2,-0.7,1.9,2470.261,13.33,0.024,333.4
2020-02-29T06:58:03,42.805,6.029,-0.042,0.011,-0.038,103.0,109.0,101.0,13.3,1505.3,325.1,-0.7,1.8,2470.267,13.33,0.043,284.7
2020-02-29T07:04:03,42.805,6.029,-0.016,0.016,-0.03,104.0,108.0,101.0,13.4,1505.3,324.3,-0.7,1.8,2470.268,13.31,0.022,315.0
2020-02-29T07:07:03,42.805,6.029,-0.023,0.017,-0.042,104.0,109.0,100.0,13.3,1505.3,326.9,-0.7,1.8,2470.273,13.32,0.028,306.5
2020-02-29T07:10:03,42.805,6.029,-0.033,0.03,-0.024,103.0,108.0,99.0,13.4,1505.3,324.2,-0.7,1.8,2470.292,13.32,0.044,312.3
2020-02-29T07:13:03,42.805,6.029,-0.019,0.023,-0.025,104.0,109.0,100.0,13.3,1505.3,325.6,-0.7,1.9,2470.284,13.33,0.029,320.4
2020-02-29T07:16:03,42.805,6.029,-0.031,0.016,-0.053,103.0,107.0,100.0,13.4,1505.3,328.3,-0.7,1.8,2470.282,13.33,0.034,297.3
2020-02-29T07:19:03,42.805,6.029,-0.05,0.027,-0.016,104.0,109.0,101.0,13.4,1505.3,327.9,-0.7,1.8,2470.274,13.33,0.056,298.4
2020-02-29T07:22:03,42.805,6.029,-0.068,0.048,-0.045,103.0,110.0,101.0,13.3,1505.3,327.2,-0.7,1.8,2470.295,13.33,0.083,305.2
2020-02-29T07:25:03,42.805,6.029,-0.028,0.018,-0.028,103.0,108.0,102.0,13.3,1505.3,326.4,-0.7,1.8,2470.282,13.33,0.033,302.7
2020-02-29T07:28:03,42.805,6.029,-0.009,0.035,-0.032,104.0,108.0,101.0,13.4,1505.3,328.1,-0.7,1.9,2470.299,13.33,0.036,345.6
2020-02-29T07:31:03,42.805,6.029,-0.018,0.029,-0.063,103.0,108.0,101.0,13.4,1505.3,325.7,-0.7,1.9,2470.271,13.33,0.034,328.2
2020-02-29T07:34:03,42.805,6.029,-0.062,0.021,-0.028,103.0,109.0,100.0,13.4,1505.3,324.6,-0.7,1.8,2470.35,13.33,0.065,288.7
2020-02-29T07:37:03,42.805,6.029,-0.013,0.006,-0.028,104.0,108.0,102.0,13.4,1505.3,323.5,-0.7,1.8,2470.297,13.33,0.014,294.8
2020-02-29T07:40:03,42.805,6.029,-0.04,0.024,-0.024,104.0,109.0,101.0,13.4,1505.3,325.0,-0.7,1.8,2470.289,13.33,0.046,301.0
2020-02-29T07:43:03,42.805,6.029,-0.043,0.029,-0.04,103.0,108.0,102.0,13.3,1505.3,327.6,-0.7,1.8,2470.299,13.33,0.051,304.0
2020-02-29T07:46:03,42.805,6.029,-0.021,0.021,-0.023,106.0,108.0,101.0,13.4,1505.3,323.4,-0.7,1.8,2470.282,13.33,0.029,315.0
2020-02-29T07:49:03,42.805,6.029,-0.03,0.019,-0.036,104.0,109.0,100.0,13.4,1505.3,326.3,-0.7,1.8,2470.274,13.33,0.035,302.3
2020-02-29T07:52:03,42.805,6.029,-0.031,0.036,-0.048,103.0,109.0,101.0,13.4,1505.3,326.0,-0.7,1.8,2470.296,13.33,0.047,319.3
2020-02-29T07:55:03,42.805,6.029,-0.04,0.023,-0.03,103.0,109.0,101.0,13.3,1505.3,327.7,-0.7,1.8,2470.283,13.33,0.046,299.9
2020-02-29T07:58:03,42.805,6.029,-0.039,0.015,-0.066,104.0,108.0,100.0,13.4,1505.3,325.1,-0.7,1.8,2470.304,13.33,0.041,291.0
2020-02-29T08:04:03,42.805,6.029,-0.013,0.018,-0.058,103.0,108.0,101.0,13.4,1505.3,324.5,-0.7,1.8,2470.344,13.32,0.022,324.2
2020-02-29T08:07:03,42.805,6.029,-0.008,0.022,-0.019,104.0,109.0,100.0,13.4,1505.3,323.2,-0.7,1.8,2470.348,13.32,0.023,340.0
2020-02-29T08:10:03,42.805,6.029,-0.058,0.023,-0.097,105.0,110.0,99.0,13.4,1505.3,328.3,-0.7,1.8,2470.301,13.32,0.062,291.6
2020-02-29T08:13:03,42.805,6.029,-0.039,0.024,-0.05,104.0,109.0,101.0,13.4,1505.3,325.9,-0.7,1.8,2470.311,13.33,0.045,301.6
2020-02-29T08:16:03,42.805,6.029,-0.037,0.024,-0.041,102.0,110.0,101.0,13.4,1505.3,327.5,-0.7,1.8,2470.34,13.33,0.044,303.0
2020-02-29T08:19:03,42.805,6.029,-0.059,0.02,-0.057,104.0,108.0,102.0,13.4,1505.3,325.0,-0.7,1.8,2470.324,13.33,0.062,288.7
2020-02-29T08:22:03,42.805,6.029,-0.032,0.024,-0.025,105.0,110.0,101.0,13.4,1505.3,326.7,-0.7,1.8,2470.332,13.33,0.04,306.9
2020-02-29T08:25:03,42.805,6.029,0.0,0.006,-0.035,104.0,108.0,101.0,13.3,1505.3,323.0,-0.7,1.8,2470.335,13.33,0.006,0.0
2020-02-29T08:28:03,42.805,6.029,-0.029,0.037,-0.053,104.0,110.0,101.0,13.3,1505.3,325.8,-0.7,1.8,2470.371,13.33,0.047,321.9
2020-02-29T08:31:03,42.805,6.029,-0.047,0.011,-0.044,103.0,110.0,100.0,13.4,1505.3,326.6,-0.7,1.8,2470.338,13.33,0.048,283.2
2020-02-29T08:34:03,42.805,6.029,-0.04,0.018,-0.033,104.0,109.0,100.0,13.3,1505.3,323.8,-0.7,1.8,2470.386,13.33,0.043,294.2
2020-02-29T08:37:03,42.805,6.029,-0.036,0.024,-0.061,105.0,109.0,101.0,13.4,1505.3,327.9,-0.7,1.9,2470.363,13.33,0.043,303.7
2020-02-29T08:40:03,42.805,6.029,-0.034,0.025,-0.055,104.0,109.0,101.0,13.3,1505.3,326.7,-0.7,1.8,2470.338,13.33,0.042,306.3
2020-02-29T08:43:03,42.805,6.029,-0.022,0.027,-0.046,103.0,109.0,100.0,13.4,1505.3,326.5,-0.7,1.8,2470.326,13.33,0.034,320.8
2020-02-29T08:46:03,42.805,6.029,-0.034,0.026,-0.033,102.0,109.0,101.0,13.3,1505.3,326.9,-0.7,1.9,2470.334,13.33,0.042,307.4
2020-02-29T08:49:03,42.805,6.029,-0.003,0.039,-0.01,103.0,109.0,101.0,13.4,1505.3,327.3,-0.7,1.9,2470.336,13.33,0.039,355.6
2020-02-29T08:52:03,42.805,6.029,-0.019,0.014,0.008,105.0,107.0,102.0,13.3,1505.3,324.4,-0.8,1.8,2470.321,13.33,0.023,306.4
2020-02-29T08:55:03,42.805,6.029,0.009,0.023,-0.006,103.0,108.0,101.0,13.4,1505.3,328.4,-0.7,1.8,2470.353,13.33,0.024,21.4
2020-02-29T08:58:03,42.805,6.029,-0.018,0.024,-0.018,104.0,107.0,103.0,13.3,1505.3,326.5,-0.7,1.8,2470.327,13.33,0.03,323.1
2020-02-29T09:04:03,42.805,6.029,-0.018,0.039,-0.014,104.0,108.0,101.0,13.3,1505.3,325.0,-0.7,1.9,2470.416,13.31,0.042,335.2
2020-02-29T09:07:03,42.805,6.029,-0.003,0.037,-0.027,103.0,108.0,101.0,13.4,1505.3,325.0,-0.7,1.8,2470.42,13.32,0.037,355.4
2020-02-29T09:10:03,42.805,6.029,0.006,0.028,-0.039,104.0,108.0,100.0,13.4,1505.3,326.8,-0.7,1.9,2470.34,13.33,0.028,12.1
2020-02-29T09:13:03,42.805,6.029,-0.038,0.036,-0.044,103.0,109.0,105.0,13.4,1505.3,326.8,-0.7,1.8,2470.334,13.33,0.052,313.5
2020-02-29T09:16:03,42.805,6.029,-0.015,0.013,-0.057,105.0,108.0,102.0,13.3,1505.3,328.5,-0.7,1.8,2470.395,13.33,0.019,310.9
2020-02-29T09:19:03,42.805,6.029,-0.005,0.012,-0.032,104.0,109.0,101.0,13.4,1505.3,326.5,-0.7,1.8,2470.354,13.33,0.013,337.4
2020-02-29T09:22:03,42.805,6.029,0.006,0.022,-0.043,105.0,109.0,101.0,13.4,1505.3,327.5,-0.7,1.8,2470.413,13.33,0.022,15.3
2020-02-29T09:25:03,42.805,6.029,-0.039,0.019,-0.055,107.0,109.0,102.0,13.4,1505.3,325.3,-0.7,1.8,2470.367,13.33,0.043,296.0
2020-02-29T09:28:03,42.805,6.029,-0.007,0.009,-0.023,104.0,109.0,101.0,13.4,1505.3,327.1,-0.7,1.8,2470.367,13.33,0.011,322.1
2020-02-29T09:31:03,42.805,6.029,-0.033,0.006,-0.059,104.0,107.0,102.0,13.4,1505.4,327.5,-0.7,1.8,2470.35,13.34,0.033,280.3
2020-02-29T09:34:03,42.805,6.029,-0.027,0.016,-0.024,104.0,109.0,101.0,13.4,1505.4,323.5,-0.7,1.9,2470.355,13.34,0.031,300.7
2020-02-29T09:37:03,42.805,6.029,0.019,0.006,-0.009,106.0,109.0,101.0,13.4,1505.4,324.8,-0.7,1.8,2470.369,13.34,0.019,72.5
2020-02-29T09:40:03,42.805,6.029,0.003,0.01,-0.048,103.0,109.0,101.0,13.3,1505.4,324.7,-0.7,1.8,2470.39,13.34,0.01,16.7
2020-02-29T09:43:03,42.805,6.029,-0.034,0.028,-0.06,102.0,109.0,101.0,13.4,1505.4,326.0,-0.7,1.8,2470.381,13.34,0.044,309.5
2020-02-29T09:46:03,42.805,6.029,-0.042,0.03,-0.033,103.0,109.0,100.0,13.4,1505.4,326.4,-0.7,1.8,2470.409,13.34,0.051,305.5
2020-02-29T09:49:03,42.805,6.029,0.003,0.017,-0.023,103.0,109.0,102.0,13.4,1505.4,323.7,-0.7,1.8,2470.339,13.34,0.017,10.0
2020-02-29T09:52:03,42.805,6.029,-0.003,0.026,-0.01,104.0,109.0,100.0,13.4,1505.4,326.4,-0.7,1.8,2470.366,13.34,0.026,353.4
2020-02-29T09:55:03,42.805,6.029,-0.014,0.0,-0.042,102.0,110.0,101.0,13.4,1505.4,324.1,-0.7,1.8,2470.39,13.34,0.014,270.0
2020-02-29T09:58:03,42.805,6.029,0.017,0.025,0.005,104.0,110.0,100.0,13.4,1505.4,327.7,-0.7,1.8,2470.391,13.34,0.03,34.2
2020-02-29T10:04:03,42.805,6.029,-0.008,-0.009,-0.027,104.0,109.0,101.0,13.4,1505.3,324.3,-0.8,1.8,2470.419,13.32,0.012,221.6